Boulder Muni, Boulder, CO, CO

12:38 PM MST on November 11, 2019 (GMT -0700)
Boulder Muni, Boulder, CO

Weather History for KBDU - October, 2019

Change the Weather History Date:

Tuesday, October 22, 2019

  Actual Average Record
Temperature  
Mean Temperature 49 °F -  
Max Temperature 63 °F - 81 °F (2016)
Min Temperature 34 °F - 34 °F (2017)
Degree Days  
Heating Degree Days 16    
Month to date heating degree days 311  
Cooling Degree Days 0    
Month to date cooling degree days 0  
Moisture  
Dew Point 24 °F    
Average Humidity 46    
Maximum Humidity 69    
Minimum Humidity 23    
Precipitation  
Precipitation 0.00 in - 0.13 in (2015)
Snow  
Snow 0.00 in - - ()
Snow Depth 0.00 in    
Sea Level Pressure  
Sea Level Pressure 30.05 in    
Wind  
Wind Speed 8 mph (West)    
Max Wind Speed 27 mph    
Max Gust Speed 35 mph    
Visibility 10 miles    
Events      
T = Trace of Precipitation, MM = Missing Value Source: NWS Daily Summary

Daily Weather History Graph

Daily Weather History Graph

Search for Another Location

Airport or City:

Astronomy

Oct. 22, 2019 Rise Set
Actual Time 7:18 AM MDT 6:11 PM MDT
Civil Twilight 6:51 AM MDT 6:38 PM MDT
Nautical Twilight 6:19 AM MDT 7:10 PM MDT
Astronomical Twilight 5:48 AM MDT 7:41 PM MDT
Moon 12:31 AM MDT (10/22) 3:22 PM MDT (10/22)
Length of Visible Light 11h 47m
Length of Day
10h 52m
Last Quarter, 36% of the Moon is Illuminated
Oct 22
Last Quarter
Oct 27
New
Nov 4
First Quarter
Nov 12
Full
Nov 19
Last Quarter

Hourly Weather History & Observations

Time (MDT) Temp. Windchill Dew Point Humidity Pressure Visibility Wind Dir Wind Speed Gust Speed Precip Events Conditions
12:12 AM 35.6 °F - 24.8 °F 65% 30.16 in 10.0 mi Calm Calm - N/A   Clear
12:30 AM 33.8 °F - 23.0 °F 65% 30.15 in 10.0 mi Calm Calm - N/A   Clear
12:48 AM 33.8 °F - 24.8 °F 70% 30.15 in 10.0 mi Calm Calm - N/A   Clear
1:12 AM 33.8 °F 28.6 °F 26.6 °F 75% 30.16 in 10.0 mi NNW 5.8 mph - N/A   Clear
1:30 AM 33.8 °F - 24.8 °F 70% 30.16 in 10.0 mi Calm Calm - N/A   Clear
1:48 AM 37.4 °F 29.3 °F 21.2 °F 52% 30.15 in 10.0 mi WNW 12.7 mph 18.4 mph N/A   Clear
2:12 AM 42.8 °F 35.1 °F 19.4 °F 39% 30.15 in 10.0 mi WNW 16.1 mph 26.5 mph N/A   Clear
2:30 AM 35.6 °F 30.7 °F 24.8 °F 65% 30.16 in 10.0 mi NW 5.8 mph - N/A   Clear
2:48 AM 41.0 °F 32.5 °F 19.4 °F 42% 30.16 in 10.0 mi West 17.3 mph 28.8 mph N/A   Clear
3:12 AM 42.8 °F 33.8 °F 17.6 °F 36% 30.15 in 10.0 mi West 21.9 mph 27.6 mph N/A   Clear
3:30 AM 44.6 °F 37.2 °F 17.6 °F 34% 30.15 in 10.0 mi West 17.3 mph 31.1 mph N/A   Clear
3:48 AM 44.6 °F 37.2 °F 17.6 °F 34% 30.14 in 10.0 mi West 17.3 mph 27.6 mph N/A   Clear
4:11 AM 44.6 °F 36.9 °F 17.6 °F 34% 30.13 in 10.0 mi West 18.4 mph 27.6 mph N/A   Clear
4:29 AM 44.6 °F 40.7 °F 17.6 °F 34% 30.12 in 10.0 mi WSW 6.9 mph 26.5 mph N/A   Clear
4:53 AM 37.4 °F 30.8 °F 21.2 °F 52% 30.12 in 10.0 mi NW 9.2 mph 19.6 mph N/A   Clear
5:12 AM 35.6 °F 28.0 °F 23.0 °F 60% 30.13 in 10.0 mi North 10.4 mph - N/A   Clear
5:30 AM 35.6 °F 31.7 °F 23.0 °F 60% 30.13 in 10.0 mi NW 4.6 mph - N/A   Clear
5:54 AM 35.6 °F - 23.0 °F 60% 30.12 in 10.0 mi Calm Calm - N/A   Clear
6:12 AM 35.6 °F 31.7 °F 23.0 °F 60% 30.12 in 10.0 mi NNE 4.6 mph - N/A   Clear
6:30 AM 35.6 °F 32.8 °F 23.0 °F 60% 30.11 in 10.0 mi SE 3.5 mph - N/A   Clear
6:54 AM 33.8 °F - 23.0 °F 65% 30.12 in 10.0 mi Calm Calm - N/A   Clear
7:12 AM 33.8 °F 29.6 °F 23.0 °F 65% 30.12 in 10.0 mi SSW 4.6 mph - N/A   Clear
7:30 AM 35.6 °F - 24.8 °F 65% 30.11 in 10.0 mi Calm Calm - N/A   Clear
7:54 AM 41.0 °F - 23.0 °F 49% 30.11 in 10.0 mi Calm Calm - N/A   Clear
8:12 AM 44.6 °F 41.4 °F 21.2 °F 39% 30.12 in 10.0 mi WSW 5.8 mph - N/A   Clear
8:30 AM 48.2 °F - 21.2 °F 34% 30.12 in 10.0 mi West 9.2 mph 21.9 mph N/A   Clear
8:54 AM 50.0 °F - 21.2 °F 32% 30.12 in 10.0 mi West 15.0 mph 21.9 mph N/A   Clear
9:12 AM 51.8 °F - 21.2 °F 30% 30.12 in 10.0 mi West 13.8 mph 19.6 mph N/A   Clear
9:30 AM 51.8 °F - 23.0 °F 33% 30.12 in 10.0 mi North 5.8 mph - N/A   Clear
9:54 AM 51.8 °F - 23.0 °F 33% 30.12 in 10.0 mi West 16.1 mph 24.2 mph N/A   Clear
10:11 AM 53.6 °F - 21.2 °F 28% 30.12 in 10.0 mi West 17.3 mph 25.3 mph N/A   Clear
10:29 AM 55.4 °F - 23.0 °F 29% 30.12 in 10.0 mi West 15.0 mph 25.3 mph N/A   Clear
10:53 AM 55.4 °F - 23.0 °F 29% 30.11 in 10.0 mi West 26.5 mph 34.5 mph N/A   Clear
11:12 AM 55.4 °F - 23.0 °F 29% 30.10 in 10.0 mi West 19.6 mph 29.9 mph N/A   Clear
11:30 AM 55.4 °F - 23.0 °F 29% 30.10 in 10.0 mi West 21.9 mph 31.1 mph N/A   Clear
11:48 AM 57.2 °F - 23.0 °F 27% 30.09 in 10.0 mi West 26.5 mph 33.4 mph N/A   Clear
12:12 PM 59.0 °F - 23.0 °F 25% 30.08 in 10.0 mi West 16.1 mph 25.3 mph N/A   Clear
12:30 PM 59.0 °F - 23.0 °F 25% 30.06 in 10.0 mi West 23.0 mph 29.9 mph N/A   Clear
12:48 PM 60.8 °F - 23.0 °F 23% 30.06 in 10.0 mi West 12.7 mph 24.2 mph N/A   Clear
1:12 PM 60.8 °F - 23.0 °F 23% 30.03 in 10.0 mi West 21.9 mph 31.1 mph N/A   Clear
1:30 PM 59.0 °F - 24.8 °F 27% 30.03 in 10.0 mi WNW 12.7 mph 29.9 mph N/A   Clear
1:48 PM 60.8 °F - 24.8 °F 25% 30.01 in 10.0 mi West 12.7 mph 25.3 mph N/A   Clear
2:12 PM 62.6 °F - 24.8 °F 24% 30.00 in 10.0 mi West 9.2 mph 12.7 mph N/A   Clear
2:30 PM 60.8 °F - 26.6 °F 27% 30.00 in 10.0 mi NW 11.5 mph 19.6 mph N/A   Clear
2:48 PM 60.8 °F - 26.6 °F 27% 29.99 in 10.0 mi West 8.1 mph 19.6 mph N/A   Clear
3:12 PM 60.8 °F - 26.6 °F 27% 29.99 in 10.0 mi WSW 12.7 mph - N/A   Scattered Clouds
3:30 PM 62.6 °F - 26.6 °F 26% 29.98 in 10.0 mi West 17.3 mph 25.3 mph N/A   Scattered Clouds
3:48 PM 60.8 °F - 26.6 °F 27% 29.99 in 10.0 mi West 16.1 mph 24.2 mph N/A   Scattered Clouds
4:12 PM 59.0 °F - 26.6 °F 29% 30.00 in 10.0 mi West 10.4 mph - N/A   Clear
4:30 PM 59.0 °F - 26.6 °F 29% 30.00 in 10.0 mi West 5.8 mph - N/A   Clear
4:48 PM 59.0 °F - 28.4 °F 31% 29.98 in 10.0 mi NNW 3.5 mph - N/A   Clear
5:12 PM 60.8 °F - 28.4 °F 29% 29.98 in 10.0 mi North 3.5 mph - N/A   Scattered Clouds
5:30 PM 57.2 °F - 28.4 °F 33% 29.99 in 10.0 mi NNW 4.6 mph - N/A   Scattered Clouds
5:48 PM 55.4 °F - 28.4 °F 36% 29.98 in 10.0 mi NNE 3.5 mph - N/A   Scattered Clouds
6:13 PM 55.4 °F - 26.6 °F 33% 29.98 in 10.0 mi Calm Calm - N/A   Scattered Clouds
6:31 PM 55.4 °F - 26.6 °F 33% 29.97 in 10.0 mi NNW 3.5 mph 17.3 mph N/A   Mostly Cloudy
7:12 PM 55.4 °F - 26.6 °F 33% 29.97 in 10.0 mi Calm Calm - N/A   Clear
7:30 PM 55.4 °F - 26.6 °F 33% 29.95 in 10.0 mi West 16.1 mph 24.2 mph N/A   Clear
7:54 PM 55.4 °F - 26.6 °F 33% 29.96 in 10.0 mi East 5.8 mph - N/A   Clear
8:30 PM 55.4 °F - 26.6 °F 33% 29.94 in 10.0 mi SSW 8.1 mph 21.9 mph N/A   Clear
8:54 PM 53.6 °F - 28.4 °F 38% 29.94 in 10.0 mi Calm Calm - N/A   Clear
9:12 PM 53.6 °F - 28.4 °F 38% 29.95 in 10.0 mi East 5.8 mph - N/A   Clear
9:30 PM 53.6 °F - 28.4 °F 38% 29.95 in 10.0 mi NE 4.6 mph - N/A   Clear
9:54 PM 53.6 °F - 26.6 °F 35% 29.93 in 10.0 mi SE 8.1 mph - N/A   Clear
10:12 PM 53.6 °F - 26.6 °F 35% 29.92 in 10.0 mi SSE 4.6 mph - N/A   Clear
10:30 PM 55.4 °F - 26.6 °F 33% 29.90 in 10.0 mi SSW 4.6 mph - N/A   Clear
10:54 PM 53.6 °F - 26.6 °F 35% 29.92 in 10.0 mi West 9.2 mph - N/A   Clear
11:12 PM 53.6 °F - 26.6 °F 35% 29.90 in 10.0 mi ESE 9.2 mph - N/A   Clear
11:30 PM 55.4 °F - 24.8 °F 31% 29.90 in 10.0 mi SE 9.2 mph - N/A   Clear
11:54 PM 53.6 °F - 24.8 °F 33% 29.91 in 10.0 mi East 10.4 mph - N/A   Clear